sat.trackr.live / text

‹ back to catalog

STARLINK-5035

NORAD 53897 · 2022-119M

PAYLOAD ACTIVE UNKNOWN

§ Identity

Operator
Country
US
Launch date
2022-09-24
Launch site
AFETR
Launch vehicle
Mass (kg)
RCS (m²)

Purposes: comms

External: N2YO · Heavens-Above · Gunter

§ Orbital elements

Epoch: 2026-05-25T04:00:03.998880Z

Period
92.95 min
Inclination
53.2163°
Eccentricity
0.0001210
Mean motion
15.49176719 rev/d
Perigee alt
418.3 km
Apogee alt
420.0 km
Semi-major
6,797.3 km
B*
1.0354e-2
RAAN
333.3786°
Arg perigee
77.9401°
Mean anomaly
8.9108°
Rev number
588

§ Raw data

STARLINK-50351 53897U 22119M   26145.16671295  .00620673  00000+0  10354-1 0  99992 53897  53.2163 333.3786 0001210  77.9401   8.9108 15.49176719  5886

JSON: /api/v1/satellites/53897 · /tle

For live sub-satellite position, see the globe view (requires WebGL).

§ Visibility from observer

Set your observer location to see the next 7 days of passes ≥ 10°. The values pass through the URL so the page stays shareable.

No JS? Fill the form by hand. The geolocation button needs JavaScript.